Location: Newark
(25.6108°S, 54.5803°W)
Time: 20:31:10
(UTC+00:00)

Courier 1B - Pass Details

Date: 05 November 2020
Orbit: 962 x 1209 km, 28.3° (Epoch: 24 November)

Event Time Altitude Azimuth Distance (km) Brightness Sun altitude
Rises 07:14:28 0° 278° (W) 4,107 - -19.9°
Reaches altitude 10° 07:19:44 10° 306° (NW) 3,142 - -18.8°
Maximum altitude 07:22:20 12° 326° (NW) 2,994 - -18.3°
Exits shadow 07:24:55 10° 346° (NNW) 3,122 9.7 -17.8°
Drops below altitude 10° 07:24:56 10° 346° (NNW) 3,123 9.7 -17.8°
Sets 07:30:10 0° 15° (NNE) 4,047 10.6 -16.8°
